RH
10 9 9 10 10 11 12 12 12 14 13 10 9 14 15 15 13 11 11 13 12 13 14 14 13 12 12 12 13 14 14 13 12 12 13 14 15 16 17 16 15 15 15
9 8 7 8 9 11 12 12 13 11 5 5 7 10 14 13 8 7 8 10 12 14 15 14 13 11 10 10 10 10 12 12 12 12 12 13 14 14 15 16 17 17 18
11 7 4 3 5 8 9 10 8 4 4 5 6 8 9 8 6 7 9 12 15 16 16 15 13 12 12 11 11 12 12 12 13 13 13 13 14 14 16 14 14 14 15
12 8 3 3 4 5 5 4 4 4 4 4 5 5 6 6 7 9 11 14 16 17 18 17 16 14 12 12 12 11 12 12 12 13 13 14 16 18 19 19 19 19 20
11 6 3 3 4 4 4 4 4 4 4 4 5 5 6 7 8 9 11 13 15 17 18 20 20 18 14 12 12 11 11 11 11 11 11 12 13 17 18 18 19 22 21
8 3 3 4 4 4 4 5 5 5 5 5 6 6 6 7 8 8 10 11 13 15 18 20 21 21 19 16 14 14 14 14 13 12 11 10 10 10 11 12 13 18 20
4 2 3 4 4 4 5 5 6 6 6 6 6 7 7 7 8 8 9 9 11 13 15 16 19 20 21 21 20 20 20 18 17 15 14 13 12 12 12 11 10 9 9
3 3 4 4 4 4 5 5 6 6 6 6 7 7 7 7 8 8 9 9 9 10 11 13 14 16 17 18 20 20 20 18 16 14 13 12 11 11 11 12 12 11 10
3 3 4 4 5 5 6 6 6 6 7 7 7 8 8 8 8 8 9 10 10 10 10 11 12 14 15 16 17 17 17 16 14 13 12 12 12 12 11 11 11 11 10
4 4 4 5 6 6 6 7 7 7 8 8 8 9 9 10 10 12 12 14 15 15 15 15 14 14 14 14 13 13 13 13 14 14 14 14 14 14 14 14 14 14 13
4 4 6 6 6 6 7 7 8 9 9 10 10 11 12 13 14 16 16 21 18 21 23 23 22 21 21 20 20 19 19 18 18 18 18 18 17 17 17 17 17 16 16
5 6 7 8 9 11 12 12 12 13 13 13 13 14 14 15 17 18 19 22 24 24 24 25 26 26 26 26 26 25 24 23 23 23 22 21 20 19 19 18 17 17 17
7 9 12 14 14 17 18 17 17 17 17 17 16 17 17 17 18 21 24 26 27 26 26 26 26 28 30 29 29 29 29 28 28 27 26 25 25 25 23 21 20 21 22
13 16 17 18 21 22 22 22 22 22 21 21 21 21 22 23 25 28 28 28 27 27 25 24 24 29 32 32 31 33 33 33 36 33 33 32 30 26 26 26 25 26 26
19 20 21 23 24 25 25 24 24 25 25 25 26 26 25 25 26 26 26 26 27 21 21 21 22 21 31 34 36 38 38 40 39 39 40 39 37 35 34 33 32 32 37
22 24 25 26 26 23 22 23 22 22 21 20 18 17 17 17 17 17 18 20 21 20 15 18 25 22 22 29 33 37 42 44 45 44 46 45 43 41 40 44 44 48 53
26 26 24 22 21 19 16 15 14 13 11 8 7 6 6 8 7 8 10 12 15 18 13 12 16 25 19 21 30 36 40 45 45 54 58 60 54 47 49 54 58 58 58
23 21 20 18 17 15 11 8 6 5 4 5 5 6 6 6 6 5 5 6 6 10 12 7 11 13 17 20 25 31 35 37 43 55 62 70 65 56 54 59 61 61 62
20 19 19 16 13 12 13 15 15 14 12 12 12 12 13 13 12 12 10 8 7 6 7 6 6 11 12 20 20 24 28 34 42 58 71 64 66 69 66 68 66 69 67
21 20 19 19 20 21 19 16 14 14 14 15 16 17 18 19 19 18 16 13 11 9 7 7 7 6 8 15 23 23 28 38 41 54 58 61 73 70 64 79 71 71 72
24 23 25 28 29 25 21 20 23 28 30 27 24 22 22 22 22 21 19 16 12 10 8 8 8 7 7 7 13 34 27 37 36 41 40 46 60 72 73 80 74 74 76
28 30 32 33 32 30 30 33 34 32 25 24 26 26 23 20 16 13 11 10 9 8 8 8 8 7 7 8 12 20 32 38 30 47 58 52 70 65 78 78 82 77 80
33 34 34 34 33 33 36 38 33 27 27 29 24 16 10 7 5 4 4 3 4 4 6 8 8 7 10 18 34 38 36 38 45 59 85 61 65 68 80 88 90 87 79
36 35 35 36 37 39 40 34 29 28 24 13 7 5 3 3 2 2 2 2 2 3 4 4 6 6 15 35 67 70 99 98 93 65 90 66 72 84 95 86 90 92 90
36 37 38 40 42 40 30 27 17 8 5 4 3 2 3 3 5 6 6 6 5 5 6 8 9 8 11 33 95 100 100 99 98 94 99 100 84 96 99 95 95 93 89
38 40 44 44 34 29 17 5 4 3 3 2 3 4 6 7 7 8 9 10 9 8 11 14 15 16 15 20 80 100 96 96 96 87 88 99 95 100 98 96 96 93 88
Wind_Speed
12 12 13 12 12 12 12 13 15 16 16 15 14 12 11 11 12 10 12 11 11 12 13 15 16 17 18 18 16 15 15 16 17 18 19 20 21 23 24 25 26 28 29
12 13 14 13 13 14 15 16 17 16 15 13 12 12 11 12 12 11 11 11 12 13 14 15 16 16 17 17 17 15 16 16 17 18 18 19 19 20 22 21 22 23 24
13 14 15 15 15 15 15 16 15 14 13 11 11 11 11 11 11 11 12 13 14 15 16 16 16 17 17 17 17 17 16 17 18 19 19 19 18 18 19 19 20 20 20
15 16 16 14 14 13 14 14 13 13 14 13 13 13 13 14 14 14 14 15 16 17 17 17 17 18 18 18 18 17 17 18 18 19 20 19 18 19 20 20 20 20 20
15 16 15 14 13 13 13 13 13 14 14 14 14 15 15 15 16 16 17 18 18 19 19 19 19 19 19 19 19 19 19 18 19 20 20 20 19 20 22 22 21 21 21
15 16 15 15 14 14 15 15 15 15 16 16 16 15 16 17 17 18 19 20 20 20 21 21 21 20 20 20 20 20 19 20 20 21 21 22 21 21 23 24 23 21 22
15 15 17 16 15 16 16 16 16 17 18 19 19 17 17 18 19 19 20 21 21 22 22 23 23 23 22 22 22 22 22 22 22 22 23 23 23 22 24 25 26 25 24
16 17 18 18 17 17 18 18 17 17 19 20 21 21 21 20 19 21 21 22 23 24 24 25 25 26 26 25 25 25 25 25 24 24 24 24 24 24 24 24 26 26 25
17 19 19 19 18 19 20 20 20 19 20 21 22 23 23 23 23 23 22 24 25 26 26 26 27 27 28 28 28 27 28 28 27 26 25 25 24 24 25 24 25 28 27
20 20 20 19 19 20 21 21 21 21 22 23 23 24 24 25 27 27 28 25 25 27 28 28 28 29 30 30 29 29 29 28 28 28 28 28 27 25 25 26 26 28 28
20 20 19 19 20 22 23 23 23 23 24 24 24 25 24 25 27 29 28 30 31 27 27 29 29 29 29 30 30 29 29 28 28 27 27 27 28 28 29 29 29 30 32
21 21 20 22 24 24 24 24 25 24 25 25 26 26 27 27 28 30 32 31 32 30 32 30 30 31 31 30 30 30 29 29 29 28 28 29 29 29 31 32 34 34 36
22 23 23 23 24 24 25 25 26 26 26 27 27 28 29 29 31 32 34 33 35 33 33 30 31 32 32 31 31 29 31 30 30 30 30 30 30 30 31 34 35 36 36
24 24 24 24 24 25 25 26 27 28 28 29 29 30 31 32 33 34 35 36 37 37 35 31 32 31 33 34 34 32 32 31 32 32 31 31 31 32 33 34 35 35 35
24 25 25 25 27 27 29 29 29 29 29 29 30 31 32 32 34 34 35 36 38 40 39 35 38 32 34 37 36 37 35 35 33 33 33 32 32 33 33 34 35 34 33
25 26 28 28 30 30 30 29 27 27 28 28 29 30 31 34 35 35 36 36 38 40 45 39 38 41 37 38 39 39 39 39 36 35 35 34 34 33 34 35 34 34 34
28 28 28 27 26 25 26 26 27 28 29 30 31 32 32 35 36 37 38 38 39 40 46 45 43 42 45 40 41 43 41 41 40 38 37 37 35 34 34 34 35 35 36
27 25 23 23 24 26 27 29 29 30 31 31 31 34 33 36 37 38 41 42 42 42 46 49 47 45 44 43 42 44 44 44 43 40 41 39 37 35 35 35 35 36 36
22 22 23 24 26 27 29 31 32 33 34 34 34 36 37 39 41 42 43 46 46 47 47 50 50 48 46 46 45 44 44 45 45 44 44 42 38 38 38 37 37 38 37
22 23 25 26 28 29 31 33 35 35 36 37 38 39 40 42 44 46 48 49 50 51 51 52 52 52 51 47 47 47 45 44 46 47 47 44 40 39 38 37 37 37 37
24 25 27 28 30 31 33 36 39 41 42 43 43 44 46 47 48 49 50 52 52 54 55 56 55 54 55 52 48 46 48 45 47 48 48 45 43 40 38 37 37 38 39
27 29 31 33 34 36 39 41 44 46 46 48 49 50 51 52 52 52 51 51 52 55 57 59 58 58 57 56 51 48 47 50 51 47 47 47 43 42 38 37 37 38 38
30 33 35 38 38 40 42 45 46 49 52 54 55 55 54 54 53 54 54 55 55 55 56 57 61 62 60 56 52 52 50 52 51 47 47 47 42 41 38 37 38 38 38
35 37 39 42 44 45 45 48 51 54 55 56 56 56 55 54 52 52 54 55 56 56 56 56 57 60 60 57 53 53 49 50 52 47 44 48 43 41 40 40 37 36 37
39 42 44 45 47 48 51 54 55 55 55 55 54 52 52 52 51 50 52 54 57 58 55 55 56 56 57 58 55 51 54 53 53 48 43 47 43 41 40 40 37 37 38
44 46 47 48 51 54 55 54 55 57 57 55 54 52 51 52 52 52 53 53 56 56 55 54 53 53 53 54 54 52 53 53 55 47 44 46 42 41 42 38 37 38 38
Wind_Direction
323 326 326 325 325 319 316 314 311 309 309 306 303 302 302 296 292 294 291 292 293 296 298 301 301 299 297 295 293 289 282 277 276 275 275 273 273 274 275 275 274 274 274
320 320 315 317 315 312 310 309 306 307 311 308 306 301 299 297 297 300 300 298 294 292 292 294 296 296 296 297 296 293 290 288 283 281 280 279 278 279 279 281 280 277 277
314 315 313 310 305 306 307 305 307 311 313 310 307 303 297 296 297 296 294 289 287 289 291 295 296 296 296 296 297 297 295 291 289 287 286 286 284 281 280 280 280 283 286
309 312 310 307 306 308 308 307 312 312 310 308 304 300 299 298 296 294 291 290 290 291 293 295 296 297 297 297 297 296 295 294 293 292 291 290 289 287 283 281 282 286 289
305 308 304 303 305 310 308 310 311 307 303 300 297 297 298 297 297 297 295 293 293 292 292 294 296 296 296 295 295 296 296 295 294 293 293 293 292 290 288 289 292 295 295
307 304 299 299 306 308 307 308 307 306 303 300 297 296 298 297 298 298 296 295 294 293 294 294 295 295 294 293 293 293 294 295 294 293 293 293 292 291 291 290 290 291 292
307 300 297 300 304 303 303 304 304 305 305 303 299 299 297 297 295 295 295 295 294 293 293 293 293 292 290 289 288 287 287 289 290 291 293 293 293 292 292 294 294 293 293
303 299 298 300 303 302 303 301 300 303 303 301 299 298 298 292 289 293 293 291 290 289 290 290 290 290 289 287 286 287 288 288 288 288 289 289 290 290 289 289 290 290 289
301 295 298 301 301 302 302 301 300 299 297 296 295 294 293 292 295 290 289 290 289 288 287 288 289 290 290 290 289 290 290 289 288 286 284 282 283 285 286 286 287 289 289
300 296 296 297 300 302 299 297 296 295 294 292 291 291 291 292 293 294 297 291 292 293 294 293 292 292 291 291 290 290 288 288 289 291 292 292 291 290 290 290 290 288 288
298 294 293 295 298 297 294 294 293 291 292 291 291 290 289 291 293 295 296 300 297 292 293 294 293 291 289 290 290 290 289 288 287 287 288 290 292 294 293 291 291 291 290
294 293 294 298 297 294 291 292 291 292 292 292 291 292 291 291 292 293 295 295 293 294 295 294 293 292 292 291 290 290 289 289 288 289 289 288 288 289 291 291 291 289 288
295 296 297 297 294 293 293 294 292 292 291 291 291 290 291 293 294 294 295 294 293 291 291 291 291 290 290 289 287 286 285 286 285 284 285 286 287 288 288 287 286 284 284
294 294 294 294 293 293 293 293 292 291 292 293 295 295 294 295 293 293 293 294 294 293 293 293 288 288 287 286 285 283 282 281 283 282 282 283 284 285 285 284 283 283 282
291 293 294 295 295 296 295 294 295 295 294 294 294 294 294 293 292 293 294 294 295 298 296 297 294 289 285 286 285 284 282 281 280 281 282 283 284 285 284 284 283 282 281
292 294 296 296 297 297 298 300 300 299 299 299 299 298 298 297 296 296 295 294 294 295 294 296 292 290 286 283 283 281 282 281 281 281 280 280 281 282 282 282 281 281 282
296 297 299 300 302 304 304 304 304 303 303 302 301 300 299 297 297 296 295 293 292 291 290 292 289 289 288 287 283 281 280 280 280 280 279 278 279 280 278 278 279 281 282
298 300 302 304 305 305 305 305 305 305 305 303 301 299 299 296 296 296 295 293 291 290 289 290 290 289 287 286 285 282 281 280 279 277 276 275 276 277 275 276 278 280 280
298 300 303 306 307 307 308 307 306 304 304 303 303 302 302 300 299 297 295 293 293 291 289 288 289 288 287 285 284 280 280 280 280 279 275 276 275 273 272 274 277 277 278
300 304 306 307 307 307 306 305 304 304 303 303 303 302 301 299 298 297 295 293 292 290 288 287 288 287 285 284 282 282 283 279 277 276 276 276 274 272 271 271 275 275 276
301 304 305 307 307 307 306 304 303 302 303 302 301 300 298 296 294 292 290 290 289 287 287 286 286 285 285 285 284 285 281 280 277 276 276 275 271 268 270 269 270 274 274
304 305 306 306 306 305 304 303 302 302 302 302 302 300 298 296 294 291 288 286 284 283 283 284 284 283 283 283 283 282 279 276 274 272 272 275 273 271 270 267 268 272 272
303 304 304 304 303 302 302 303 303 303 304 304 302 300 299 298 296 293 290 287 284 280 277 277 279 281 282 281 282 278 274 275 275 274 269 271 271 270 269 267 268 269 272
302 303 304 304 305 306 305 305 304 304 304 304 304 303 302 300 298 296 294 292 289 286 282 278 274 275 275 276 275 275 274 271 272 273 270 272 271 270 269 268 267 269 269
303 306 307 307 307 308 309 309 308 306 305 304 304 303 302 301 301 300 298 296 294 293 292 287 281 276 271 269 268 268 266 266 267 273 270 271 270 273 269 268 268 269 270
308 308 308 309 309 310 310 310 309 308 307 306 305 305 304 305 306 306 304 303 300 299 297 293 288 284 275 267 266 265 265 264 267 267 268 270 269 270 269 267 269 271 272